TimeCDT,TemperatureF,Dew PointF,Humidity,Sea Level PressureIn,VisibilityMPH,Wind Direction,Wind SpeedMPH,Gust SpeedMPH,PrecipitationIn,Events,Conditions,WindDirDegrees,DateUTC
12:15 AM,39.2,26.6,61,30.13,10.0,SSW,8.1,-,N/A,,Clear,200,2012-10-08 05:15:00
12:35 AM,39.2,26.6,61,30.12,10.0,SSW,10.4,-,N/A,,Clear,200,2012-10-08 05:35:00
12:55 AM,39.2,26.6,61,30.12,10.0,SSW,13.8,-,N/A,,Clear,200,2012-10-08 05:55:00
1:15 AM,39.2,28.4,65,30.12,10.0,SSW,10.4,-,N/A,,Clear,210,2012-10-08 06:15:00
1:35 AM,39.2,28.4,65,30.12,10.0,SSW,11.5,-,N/A,,Clear,210,2012-10-08 06:35:00
1:55 AM,37.4,28.4,70,30.11,10.0,SSW,11.5,-,N/A,,Clear,210,2012-10-08 06:55:00
2:15 AM,37.4,28.4,70,30.11,10.0,SSW,10.4,-,N/A,,Clear,210,2012-10-08 07:15:00
2:35 AM,37.4,28.4,70,30.10,10.0,SSW,10.4,-,N/A,,Clear,210,2012-10-08 07:35:00
2:55 AM,37.4,28.4,70,30.10,10.0,SW,10.4,-,N/A,,Clear,220,2012-10-08 07:55:00
3:15 AM,37.4,28.4,70,30.09,10.0,SSW,12.7,-,N/A,,Clear,210,2012-10-08 08:15:00
3:35 AM,37.4,28.4,70,30.08,10.0,SSW,12.7,-,N/A,,Clear,210,2012-10-08 08:35:00
3:55 AM,37.4,28.4,70,30.07,10.0,SW,12.7,-,N/A,,Clear,220,2012-10-08 08:55:00
4:15 AM,37.4,28.4,70,30.07,10.0,SSW,11.5,-,N/A,,Clear,210,2012-10-08 09:15:00
4:35 AM,37.4,28.4,70,30.06,10.0,SSW,10.4,-,N/A,,Clear,210,2012-10-08 09:35:00
4:55 AM,37.4,28.4,70,30.06,10.0,SW,11.5,-,N/A,,Clear,220,2012-10-08 09:55:00
5:15 AM,37.4,28.4,70,30.06,10.0,SSW,9.2,-,N/A,,Clear,210,2012-10-08 10:15:00
5:35 AM,37.4,28.4,70,30.06,10.0,SSW,10.4,-,N/A,,Clear,210,2012-10-08 10:35:00
5:55 AM,35.6,28.4,75,30.06,10.0,SSW,9.2,-,N/A,,Clear,210,2012-10-08 10:55:00
6:15 AM,35.6,28.4,75,30.06,10.0,SSW,9.2,-,N/A,,Clear,210,2012-10-08 11:15:00
6:35 AM,35.6,28.4,75,30.06,10.0,SSW,9.2,-,N/A,,Clear,210,2012-10-08 11:35:00
6:55 AM,35.6,28.4,75,30.05,10.0,SSW,8.1,-,N/A,,Clear,210,2012-10-08 11:55:00
7:15 AM,35.6,28.4,75,30.05,10.0,SSW,8.1,-,N/A,,Clear,210,2012-10-08 12:15:00
7:35 AM,33.8,28.4,81,30.05,10.0,SSW,10.4,-,N/A,,Clear,210,2012-10-08 12:35:00
7:55 AM,35.6,28.4,75,30.05,10.0,SW,10.4,-,N/A,,Clear,220,2012-10-08 12:55:00
8:15 AM,35.6,28.4,75,30.05,10.0,SSW,11.5,-,N/A,,Clear,210,2012-10-08 13:15:00
8:35 AM,37.4,30.2,75,30.05,10.0,SW,12.7,-,N/A,,Clear,220,2012-10-08 13:35:00
8:55 AM,39.2,30.2,70,30.05,10.0,SW,12.7,-,N/A,,Clear,230,2012-10-08 13:55:00
9:15 AM,41.0,32.0,70,30.05,10.0,SW,10.4,16.1,N/A,,Clear,230,2012-10-08 14:15:00
9:35 AM,42.8,33.8,70,30.06,10.0,SW,12.7,-,N/A,,Clear,220,2012-10-08 14:35:00
9:55 AM,46.4,33.8,62,30.05,10.0,SSW,11.5,-,N/A,,Clear,210,2012-10-08 14:55:00
10:15 AM,48.2,35.6,62,30.05,10.0,SW,10.4,-,N/A,,Clear,230,2012-10-08 15:15:00
10:35 AM,51.8,35.6,54,30.04,10.0,SSW,8.1,-,N/A,,Clear,210,2012-10-08 15:35:00
10:55 AM,53.6,35.6,51,30.04,10.0,SW,8.1,-,N/A,,Clear,220,2012-10-08 15:55:00
11:15 AM,57.2,35.6,44,30.03,10.0,SW,9.2,-,N/A,,Clear,220,2012-10-08 16:15:00
11:35 AM,57.2,35.6,44,30.02,10.0,SSW,9.2,-,N/A,,Clear,210,2012-10-08 16:35:00
11:55 AM,60.8,37.4,42,30.02,10.0,South,11.5,-,N/A,,Clear,180,2012-10-08 16:55:00
12:15 PM,62.6,35.6,37,30.01,10.0,South,9.2,-,N/A,,Clear,190,2012-10-08 17:15:00
12:35 PM,64.4,35.6,34,30.00,10.0,SW,8.1,-,N/A,,Clear,220,2012-10-08 17:35:00
12:55 PM,66.2,33.8,30,29.99,10.0,SSW,15.0,18.4,N/A,,Clear,210,2012-10-08 17:55:00
1:15 PM,68.0,32.0,26,29.98,10.0,SSW,18.4,21.9,N/A,,Clear,210,2012-10-08 18:15:00
1:35 PM,69.8,30.2,23,29.96,10.0,SSW,17.3,25.3,N/A,,Clear,210,2012-10-08 18:35:00
1:55 PM,71.6,30.2,22,29.95,10.0,SSW,18.4,24.2,N/A,,Clear,200,2012-10-08 18:55:00
2:15 PM,71.6,28.4,20,29.94,10.0,SW,20.7,27.6,N/A,,Clear,220,2012-10-08 19:15:00
2:35 PM,71.6,26.6,19,29.93,10.0,SSW,12.7,23.0,N/A,,Clear,210,2012-10-08 19:35:00
2:55 PM,71.6,26.6,19,29.91,10.0,SSW,15.0,23.0,N/A,,Clear,200,2012-10-08 19:55:00
3:15 PM,71.6,26.6,19,29.91,10.0,SSW,19.6,24.2,N/A,,Clear,200,2012-10-08 20:15:00
3:35 PM,71.6,26.6,19,29.90,10.0,SSW,18.4,29.9,N/A,,Clear,210,2012-10-08 20:35:00
3:55 PM,73.4,26.6,18,29.89,10.0,SSW,21.9,25.3,N/A,,Clear,210,2012-10-08 20:55:00
4:15 PM,73.4,24.8,16,29.89,10.0,SSW,13.8,20.7,N/A,,Clear,210,2012-10-08 21:15:00
4:35 PM,71.6,26.6,19,29.89,10.0,SSW,17.3,24.2,N/A,,Clear,210,2012-10-08 21:35:00
4:55 PM,71.6,26.6,19,29.88,10.0,SSW,19.6,25.3,N/A,,Clear,200,2012-10-08 21:55:00
5:15 PM,71.6,26.6,19,29.88,10.0,SSW,18.4,24.2,N/A,,Clear,200,2012-10-08 22:15:00
5:35 PM,71.6,26.6,19,29.88,10.0,SSW,20.7,27.6,N/A,,Clear,200,2012-10-08 22:35:00
5:55 PM,71.6,26.6,19,29.88,10.0,SSW,19.6,23.0,N/A,,Clear,200,2012-10-08 22:55:00
6:15 PM,69.8,28.4,21,29.88,10.0,SSW,15.0,23.0,N/A,,Clear,200,2012-10-08 23:15:00
6:35 PM,68.0,28.4,23,29.88,10.0,South,15.0,-,N/A,,Clear,190,2012-10-08 23:35:00
6:55 PM,66.2,28.4,24,29.88,10.0,South,13.8,-,N/A,,Clear,190,2012-10-08 23:55:00
7:15 PM,62.6,28.4,27,29.87,10.0,South,12.7,-,N/A,,Clear,180,2012-10-09 00:15:00
7:35 PM,60.8,30.2,31,29.88,10.0,South,11.5,-,N/A,,Clear,180,2012-10-09 00:35:00
7:55 PM,60.8,30.2,31,29.88,10.0,South,11.5,-,N/A,,Clear,180,2012-10-09 00:55:00
8:35 PM,57.2,30.2,36,29.88,10.0,South,16.1,-,N/A,,Clear,170,2012-10-09 01:35:00
8:55 PM,57.2,30.2,36,29.89,10.0,South,16.1,-,N/A,,Clear,180,2012-10-09 01:55:00
9:15 PM,57.2,32.0,38,29.90,10.0,South,17.3,21.9,N/A,,Clear,190,2012-10-09 02:15:00
9:35 PM,55.4,32.0,41,29.91,10.0,South,16.1,-,N/A,,Clear,180,2012-10-09 02:35:00
9:55 PM,55.4,32.0,41,29.91,10.0,South,16.1,-,N/A,,Clear,190,2012-10-09 02:55:00
10:15 PM,53.6,32.0,44,29.92,10.0,South,15.0,-,N/A,,Clear,180,2012-10-09 03:15:00
10:55 PM,51.8,32.0,47,29.92,10.0,South,12.7,-,N/A,,Clear,180,2012-10-09 03:55:00
11:15 PM,51.8,32.0,47,29.92,10.0,South,16.1,-,N/A,,Clear,180,2012-10-09 04:15:00
11:35 PM,51.8,32.0,47,29.91,10.0,South,17.3,-,N/A,,Clear,180,2012-10-09 04:35:00
11:55 PM,51.8,32.0,47,29.91,10.0,South,17.3,20.7,N/A,,Clear,190,2012-10-09 04:55:00